Philip, SD

10:49 AM MDT on October 22, 2017 (GMT -0600)
Philip

Weather History for KPHP - December, 2011

Change the Weather History Date:

Sunday, December 4, 2011

  Actual Average Record
Temperature  
Mean Temperature 17 °F 26 °F  
Max Temperature 30 °F 38 °F 64 °F (1979)
Min Temperature 3 °F 13 °F -8 °F (2002)
Degree Days  
Heating Degree Days 48 39  
Month to date heating degree days 168 155  
Since 1 July heating degree days 1537 1790  
Cooling Degree Days 0 0  
Month to date cooling degree days 0 0  
Year to date cooling degree days 837 818  
Moisture  
Dew Point 14 °F    
Average Humidity 77    
Maximum Humidity 92    
Minimum Humidity 62    
Precipitation  
Precipitation 0.01 in 0.01 in 0.26 in (1983)
Month to date precipitation 0.02 0.06  
Year to date precipitation 15.82 16.98  
Sea Level Pressure  
Sea Level Pressure 30.25 in    
Wind  
Wind Speed 16 mph (NW)    
Max Wind Speed 31 mph    
Max Gust Speed 41 mph    
Visibility 7 miles    
Events Snow    
T = Trace of Precipitation, MM = Missing Value Source: NWS Daily Summary

Daily Weather History Graph

Daily Weather History Graph

Search for Another Location

Airport or City:

Trip Planner

Search our weather history database for the weather conditions in past years. The results will help you decide how hot, cold, wet, or windy it might be!

Date:

Astronomy

Dec. 04, 2011 Rise Set
Actual Time 7:04 AM MST 4:08 PM MST
Civil Twilight 6:31 AM MST 4:41 PM MST
Nautical Twilight 5:55 AM MST 5:17 PM MST
Astronomical Twilight 5:20 AM MST 5:52 PM MST
Moon 12:48 PM MST (12/4) 1:22 AM MST (12/4)
Length of Visible Light 10h 09m
Length of Day
9h 04m
Waxing Gibbous, 72% of the Moon is Illuminated
Dec 4
Waxing Gibbous
Dec 10
Full
Dec 17
Last Quarter
Dec 24
New
Dec 31
First Quarter

Hourly Weather History & Observations

Time (MST) Temp. Windchill Dew Point Humidity Pressure Visibility Wind Dir Wind Speed Gust Speed Precip Events Conditions
12:55 AM 3.9 °F -5.3 °F 1.0 °F 88% 30.14 in 10.0 mi West 4.6 mph - N/A   Clear
1:55 AM 3.9 °F -3.4 °F -0.0 °F 84% 30.14 in 10.0 mi West 3.5 mph - N/A   Clear
2:55 AM 3.9 °F -5.3 °F 1.0 °F 88% 30.13 in 10.0 mi WNW 4.6 mph - N/A   Clear
3:55 AM 7.0 °F 0.1 °F 3.0 °F 84% 30.12 in 10.0 mi West 3.5 mph - N/A   Clear
4:55 AM 12.9 °F 2.6 °F 10.0 °F 88% 30.10 in 10.0 mi WNW 6.9 mph - N/A   Clear
5:55 AM 10.0 °F - 6.1 °F 84% 30.13 in 10.0 mi Calm Calm - N/A   Clear
6:55 AM 16.0 °F 7.4 °F 12.0 °F 84% 30.14 in 10.0 mi West 5.8 mph - N/A   Overcast
7:55 AM 19.9 °F 14.9 °F 15.1 °F 81% 30.15 in 10.0 mi West 3.5 mph - N/A   Overcast
8:29 AM 21.2 °F 12.6 °F 17.6 °F 86% 30.04 in 2.5 mi West 6.9 mph - 0.00 in Snow Light Snow
8:35 AM 21.2 °F 12.6 °F 17.6 °F 86% 30.05 in 1.8 mi West 6.9 mph - 0.00 in Snow Light Snow
8:55 AM 23.0 °F 15.8 °F 19.9 °F 88% 30.16 in 1.5 mi West 5.8 mph - 0.00 in Snow Light Snow
9:29 AM 24.8 °F 16.1 °F 21.2 °F 86% 30.06 in 3.0 mi West 8.1 mph - 0.01 in Snow Light Snow
9:41 AM 26.6 °F 16.8 °F 23.0 °F 86% 30.07 in 7.0 mi West 10.4 mph - 0.01 in Snow Light Snow
9:55 AM 28.9 °F 19.8 °F 25.0 °F 85% 30.17 in 10.0 mi West 10.4 mph - 0.01 in   Overcast
10:55 AM 30.0 °F 16.3 °F 25.0 °F 82% 30.18 in 10.0 mi WNW 24.2 mph 33.4 mph N/A   Overcast
11:35 AM 28.4 °F 15.4 °F 23.0 °F 80% 30.10 in 2.5 mi NW 19.6 mph 36.8 mph 0.00 in Snow Light Snow
11:40 AM 28.4 °F 13.5 °F 23.0 °F 80% 30.11 in 1.8 mi NW 26.5 mph 31.1 mph 0.00 in Snow Light Snow
11:50 AM 26.6 °F 10.3 °F 21.2 °F 80% 30.11 in 1.5 mi NW 29.9 mph 39.1 mph 0.00 in Snow Light Snow
11:55 AM 26.1 °F 9.6 °F 21.0 °F 81% 30.22 in 1.5 mi NNW 29.9 mph 41.4 mph 0.00 in Snow Light Snow
12:02 PM 26.6 °F 11.7 °F 21.2 °F 80% 30.11 in 2.0 mi NNW 24.2 mph 41.4 mph 0.00 in Snow Light Snow
12:12 PM 26.6 °F 11.1 °F 21.2 °F 80% 30.12 in 1.2 mi NW 26.5 mph 35.7 mph 0.00 in Snow Light Snow
12:34 PM 28.4 °F 13.0 °F 21.2 °F 74% 30.13 in 2.0 mi NNW 28.8 mph 39.1 mph 0.00 in Snow Light Snow
12:55 PM 26.1 °F 9.1 °F 19.0 °F 75% 30.26 in 3.0 mi NNW 32.2 mph 40.3 mph 0.00 in Snow Light Snow
1:03 PM 26.6 °F 10.8 °F 19.4 °F 74% 30.16 in 4.0 mi NW 27.6 mph 38.0 mph 0.00 in Snow Light Snow
1:28 PM 24.8 °F 9.3 °F 19.4 °F 80% 30.18 in 2.5 mi NNW 24.2 mph 32.2 mph 0.00 in Snow Light Snow
1:36 PM 24.8 °F 9.3 °F 19.4 °F 80% 30.18 in 1.2 mi NW 24.2 mph 29.9 mph 0.00 in Snow Light Snow
1:55 PM 25.0 °F 9.5 °F 19.0 °F 78% 30.31 in 1.8 mi NW 24.2 mph 35.7 mph 0.00 in Snow Light Snow
2:00 PM 24.8 °F 9.3 °F 19.4 °F 80% 30.21 in 3.0 mi NW 24.2 mph 33.4 mph 0.00 in Snow Light Snow
2:11 PM 24.8 °F 8.4 °F 15.8 °F 69% 30.21 in 5.0 mi NW 27.6 mph 36.8 mph 0.00 in Snow Light Snow
2:24 PM 23.0 °F 6.6 °F 12.2 °F 63% 30.23 in 6.0 mi NW 25.3 mph 39.1 mph 0.00 in Snow Light Snow
2:52 PM 21.2 °F 5.6 °F 12.2 °F 68% 30.26 in 10.0 mi NW 20.7 mph - 0.00 in   Overcast
2:55 PM 21.9 °F 5.1 °F 12.9 °F 68% 30.38 in 10.0 mi NW 25.3 mph 32.2 mph 0.00 in   Overcast
3:55 PM 19.9 °F 3.2 °F 9.0 °F 62% 30.41 in 10.0 mi NW 23.0 mph 38.0 mph 0.00 in   Mostly Cloudy
4:55 PM 19.0 °F 2.0 °F 9.0 °F 65% 30.45 in 10.0 mi NW 23.0 mph 29.9 mph N/A   Clear
5:55 PM 19.0 °F 4.5 °F 10.0 °F 68% 30.48 in 10.0 mi NW 16.1 mph 26.5 mph N/A   Overcast
6:10 PM 19.4 °F 3.6 °F 10.4 °F 68% 30.37 in 8.0 mi NW 19.6 mph 26.5 mph 0.00 in Snow Light Snow
6:55 PM 17.1 °F -0.3 °F 8.1 °F 68% 30.49 in 10.0 mi NW 21.9 mph 29.9 mph 0.00 in   Overcast
7:11 PM 17.6 °F -0.3 °F 8.6 °F 68% 30.39 in 10.0 mi NW 24.2 mph 36.8 mph N/A   Overcast
7:55 PM 15.1 °F -4.0 °F 7.0 °F 70% 30.52 in 10.0 mi NW 25.3 mph 35.7 mph N/A   Mostly Cloudy
8:15 PM 15.8 °F -1.1 °F 6.8 °F 68% 30.42 in 10.0 mi NW 19.6 mph 32.2 mph N/A   Scattered Clouds
8:55 PM 15.1 °F -4.0 °F 6.1 °F 68% 30.53 in 10.0 mi NW 25.3 mph 35.7 mph N/A   Overcast
9:55 PM 12.9 °F -5.3 °F 6.1 °F 74% 30.56 in 10.0 mi NW 20.7 mph 29.9 mph N/A   Scattered Clouds
10:55 PM 12.0 °F -6.5 °F 5.0 °F 73% 30.58 in 10.0 mi NW 20.7 mph - N/A   Clear
11:55 PM 10.0 °F -8.6 °F 3.9 °F 76% 30.59 in 10.0 mi NW 19.6 mph - N/A   Clear